Header for Extended Forecast Station List Page

Search by: ID | Name | Date | Parm | Value | Avg | % Avg
Sort by: ID | Name | Date | Parm | Value | Avg | % Avg

Enter search or view all records.

Click on id for station plot
#IDNameDateParmValueAvg% Avg
0ABOM8CLARK FORK-ABOVE MISSOULA07-27-2020DISCHARGE (KAF)447386116
1AFRI1SNAKE-AMERICAN FALLS RESERVOIR07-27-2020INFLOW (KAF)13451254107
2ALFW1PEND OREILLE-ALBENI FALLS DAM07-27-2020INFLOW (KAF)3344342798
3ALPW4SNAKE-NEAR ALPINE07-27-2020DISCHARGE (KAF)86288098
4ANAW1SNAKE-NEAR ANATONE07-27-2020DISCHARGE (KAF)4649473798
5ANTI1HENRYS FORK-AT ST. ANTHONY07-27-2020DISCHARGE (KAF)344322107
6ARAI1SF BOISE-ANDERSON RANCH DAM07-27-2020INFLOW (KAF)677193
7ARDW1ENTIAT-NEAR ARDENVOIR07-27-2020DISCHARGE (KAF)253279
8BELM8CLARK FORK-BELOW MISSOULA07-27-2020DISCHARGE (KAF)666620107
9BERO3MALHEUR-AGENCY VALLEY DAM07-27-2020INFLOW (KAF)98112
10BFEI1KOOTENAI-AT BONNERS FERRY07-27-2020STAGE (FT)MMM
11BFTI1SNAKE-NEAR BLACKFOOT07-27-2020DISCHARGE (KAF)727589123
12BIGI1BOISE-AT GLENWOOD BRIDGE07-27-2020DISCHARGE (KAF)13113597
13BITM8BITTERROOT-NEAR MISSOULA07-27-2020DISCHARGE (KAF)22122997
14BONM8BLACKFOOT-NEAR BONNER07-27-2020DISCHARGE (KAF)16617495
15BONO3COLUMBIA-BONNEVILLE DAM07-27-2020INFLOW (KAF)3134030393103
16BRNI1SNAKE-BROWNLEE DAM07-27-2020INFLOW (KAF)33413176105
17BUDW1BUMPING-BUMPING LAKE DAM07-27-2020INFLOW (KAF)2422107
18BULO3BULLY CREEK-BULLY CREEK DAM07-27-2020INFLOW (KAF)M0M
19CABI1CLARK FORK-CABINET GORGE DAM07-27-2020INFLOW (KAF)33103126106
20CFMM8FLATHEAD-AT COLUMBIA FALLS07-27-2020DISCHARGE (KAF)11961195100
21CHDW1CHELAN-LAKE CHELAN DAM07-27-2020INFLOW (KAF)15623167
22CHEI1FALL RIVER-NEAR CHESTER07-27-2020DISCHARGE (KAF)8782106
23CHJW1COLUMBIA-CHIEF JOSEPH DAM07-27-2020INFLOW (KAF)2182220298108
24CIBW1COLUMBIA-AT INTL BOUNDARY07-27-2020DISCHARGE (KAF)21682MM
25CLFW1NACHES-NEAR CLIFFDEL07-27-2020DISCHARGE (KAF)758391
26CLUW1CLE ELUM-CLE ELUM LAKE07-27-2020INFLOW (KAF)767699
27COEI1COEUR D ALENE-COEUR D ALENE LAKE07-27-2020INFLOW (KAF)243242100
28CSDI1NF PAYETTE-CASCADE DAM07-27-2020INFLOW (KAF)7769112
29DEDI1DEADWOOD-NEAR LOWMAN07-27-2020INFLOW (KAF)142074
30DLGM8CLARK FORK-AT DEER LODGE07-27-2020DISCHARGE (KAF)7247151
31DRMM8CLARK FORK-NR DRUMMOND07-27-2020DISCHARGE (KAF)176MM
32DWRI1NF CLEARWATER-DWORSHAK DAM07-27-2020INFLOW (KAF)31137383
33EASW1YAKIMA-AT EASTON07-27-2020DISCHARGE (KAF)517073
34EMMI1PAYETTE-NEAR EMMETT07-27-2020DISCHARGE (KAF)418401104
35FCFM8NF FLATHEAD-NEAR COLUMBIA FALLS07-27-2020DISCHARGE (KAF)26430188
36GCDW1COLUMBIA-GRAND COULEE DAM07-27-2020INFLOW (KAF)2244420595109
37GIBO3UMATILLA-NEAR GIBBON07-27-2020DISCHARGE (KAF)131397
38HALI1BIG WOOD-AT HAILEY07-27-2020DISCHARGE (KAF)375567
39HEII1SNAKE-NEAR HEISE07-27-2020DISCHARGE (KAF)1418150394
40HHWM8SF FLATHEAD-HUNGRY HORSE DAM07-27-2020INFLOW (KAF)23024992
41HODO3HOOD-NEAR TUCKER BRIDGE07-27-2020DISCHARGE (KAF)9910397
42HOPI1PEND OREILLE-PEND OREILLE LAKE NR HOPE07-27-2020LAKE ELEVATION (FT)MMM
43HOTI1BRUNEAU-NEAR HOT SPRINGS07-27-2020DISCHARGE (KAF)102246
44HWRI1BIG LOST-AT HOWELL RANCH NEAR CHILLY07-27-2020DISCHARGE (KAF)203755
45IHDW1SNAKE-ICE HARBOR DAM07-27-2020INFLOW (KAF)64045813110
46IPDI1HENRYS FORK-ISLAND PARK DAM07-27-2020INFLOW (KAF)13214392
47JDAO3COLUMBIA-JOHN DAY DAM07-27-2020INFLOW (KAF)3036428603106
48JKSW4SNAKE-NEAR JACKSON07-27-2020DISCHARGE (KAF)791736107
49JLKW4SNAKE-JACKSON LAKE AT DAM07-27-2020INFLOW (KAF)13615389
50KADW1KACHESS-KACHESS DAM07-27-2020INFLOW (KAF)2719142
51KEDW1YAKIMA-KEECHELUS LAKE07-27-2020INFLOW (KAF)4229146
52KERM8FLATHEAD-KERR DAM07-27-2020INFLOW (KAF)1343142494
53KIOW1YAKIMA-AT KIONA07-27-2020DISCHARGE (KAF)43547791
54LAUW1KETTLE-AT LAURIER07-27-2020DISCHARGE (KAF)13014987
55LEOI1KOOTENAI-AT LEONIA07-27-2020DISCHARGE (KAF)23952191109
56LGDW1SNAKE-LOWER GRANITE DAM07-27-2020INFLOW (KAF)64245867110
57LGSW1SNAKE-LITTLE GOOSE DAM07-27-2020INFLOW (KAF)64135900109
58LLKW1SPOKANE-AT LONGLAKE07-27-2020INFLOW (KAF)57062392
59LMNW1SNAKE-LOWER MONUMENTAL DAM07-27-2020INFLOW (KAF)64185908109
60LUCI1BOISE-LUCKY PEAK DAM07-27-2020INFLOW (KAF)374MM
61LWRI1LITTLE WOOD-LITTLE WOOD DAM07-27-2020INFLOW (KAF)81551
62LYDM8KOOTENAI-LIBBY DAM07-27-2020INFLOW (KAF)1566166694
63MACI1BIG LOST-MACKAY RESERVOIR NEAR MACKAY07-27-2020INFLOW (KAF)3025119
64MAGI1BIG WOOD-MAGIC DAM07-27-2020INFLOW (KAF)162858
65MCDW1COLUMBIA-MCNARY DAM07-27-2020INFLOW (KAF)2992828139106
66MILI1SNAKE-AT MILNER07-27-2020DISCHARGE (KAF)353167211
67MODO3DESCHUTES-AT MOODY NR BIGGS07-27-2020DISCHARGE (KAF)1050111994
68MONO3NF JOHN DAY-AT MONUMENT07-27-2020DISCHARGE (KAF)353695
69MYKO3MCKAY CREEK-NEAR PILOT ROCK07-27-2020DISCHARGE (KAF)11116
70NACW1NACHES-NEAR NACHES07-27-2020DISCHARGE (KAF)10011388
71NOXM8CLARK FORK-NOXON RAPIDS DAM07-27-2020INFLOW (KAF)30202953102
72ORFI1CLEARWATER-AT OROFINO07-27-2020DISCHARGE (KAF)47750994
73OWYO3OWYHEE-OWYHEE DAM07-27-2020INFLOW (KAF)5752109
74PARI1BOISE-NEAR PARMA07-27-2020DISCHARGE (KAF)20822294
75PARW1YAKIMA-NEAR PARKER07-27-2020DISCHARGE (KAF)14917784
76PATW1METHOW-NEAR PATEROS07-27-2020DISCHARGE (KAF)11112688
77PDTO3UMATILLA-AT PENDLETON07-27-2020DISCHARGE (KAF)1515102
78PESW1WENATCHEE-AT PESHASTIN07-27-2020DISCHARGE (KAF)26827897
79PIHI1PORTNEUF-AT POCATELLO07-27-2020DISCHARGE (KAF)303391
80PITW1KLICKITAT-NEAR PITT07-27-2020DISCHARGE (KAF)16519286
81PLDI1SF SNAKE-PALISADES DAM07-27-2020INFLOW (KAF)1203122398
82PRTI1PRIEST-NEAR PRIEST RIVER07-27-2020DISCHARGE (KAF)9017053
83PRWW1COLUMBIA-PRIEST RAPIDS DAM07-27-2020INFLOW (KAF)2300421392108
84RCCM8ROCK CREEK-NEAR CLINTON07-27-2020DISCHARGE (KAF)8666130
85REXI1HENRYS FORK-AT REXBURG07-27-2020DISCHARGE (KAF)420383110
86RIDI1WILLOW CREEK-RIRIE DAM07-27-2020INFLOW (KAF)4674
87RILW1TIETON-RIMROCK LAKE NEAR RIMROCK07-27-2020INFLOW (KAF)6865105
88RRHW1COLUMBIA-ROCKY REACH DAM07-27-2020INFLOW (KAF)2265921063108
89SATI1ST MARIES-NEAR SANTA07-27-2020DISCHARGE (KAF)151884
90SERO3JOHN DAY-AT SERVICE CK07-27-2020DISCHARGE (KAF)546484
91SHYI1SNAKE-NEAR SHELLEY07-27-2020DISCHARGE (KAF)1067915117
92SIFI1SNAKE-AB EAGLE ROCK NR IDAHO FALLS07-27-2020DISCHARGE (KAF)11391140100
93SJMI1ST JOE-AT ST MARIES07-27-2020STAGE (FT)MMM
94SNAI1SNAKE-AT BLACKFOOT07-27-2020DISCHARGE (KAF)726585124
95SPDI1CLEARWATER-AT SPALDING07-27-2020DISCHARGE (KAF)17751050169
96SPOW1SPOKANE-AT SPOKANE07-27-2020DISCHARGE (KAF)398MM
97SRGM8CLARK FORK-AT ST REGIS07-27-2020DISCHARGE (KAF)820812101
98STRM8ST. REGIS-NEAR ST. REGIS07-27-2020DISCHARGE (KAF)3431112
99SWAI1SNAKE-BELOW SWAN FALLS07-27-2020DISCHARGE (KAF)2116213799
100TCHW1WALLA WALLA-NEAR TOUCHET07-27-2020DISCHARGE (KAF)1813131
101TDAO3COLUMBIA-THE DALLES DAM07-27-2020INFLOW (KAF)3092429293106
102TEAI1TETON-NEAR ST. ANTHONY07-27-2020DISCHARGE (KAF)15416096
103TNAW1TEANAWAY-BELOW FORKS07-27-2020DISCHARGE (KAF)81078
104TONW1OKANOGAN-NEAR TONASKET07-27-2020DISCHARGE (KAF)370305121
105TRYO3GRANDE RONDE-TROY07-27-2020DISCHARGE (KAF)221203109
106UMAO3UMATILLA-NEAR UMATILLA07-27-2020DISCHARGE (KAF)6614470
107UMTW1YAKIMA-AT UMTANUM07-27-2020DISCHARGE (KAF)48550396
108UNDW1WHITE SALMON-NEAR UNDERWOOD07-27-2020DISCHARGE (KAF)14515991
109WANW1COLUMBIA-WANAPUM DAM07-27-2020INFLOW (KAF)2301820957110
110WEII1SNAKE-AT WEISER07-27-2020DISCHARGE (KAF)32083120103
111WELW1COLUMBIA-WELLS DAM07-27-2020INFLOW (KAF)2233420557109
112WGCM8MF FLATHEAD-NEAR WEST GLACIER07-27-2020DISCHARGE (KAF)274249110
113WHBI1SALMON-AT WHITEBIRD07-27-2020DISCHARGE (KAF)1146122494
114WRMO3MALHEUR-WARM SPRINGS DAM07-27-2020INFLOW (KAF)75139
115WSRI1WEISER-NEAR WEISER07-27-2020DISCHARGE (KAF)505198